Salina, KS

3:33 PM CDT on April 22, 2018 (GMT -0500)
Salina Municipal

Weather History for KSLN - August, 2014

Change the Weather History Date:

Sunday, August 10, 2014

  Actual Average Record
Temperature  
Mean Temperature 78 °F 81 °F  
Max Temperature 88 °F 92 °F 113 °F (1934)
Min Temperature 68 °F 69 °F 54 °F (1912)
Degree Days  
Heating Degree Days 0 0  
Month to date heating degree days 0 0  
Since 1 June heating degree days 1 7  
Since 1 July heating degree days 0 0  
Cooling Degree Days 13 16  
Month to date cooling degree days 170 160  
Year to date cooling degree days 1202 1114  
Since 1 June cooling degree days 970 986  
Growing Degree Days 28 (Base 50)    
Moisture  
Dew Point 66 °F    
Average Humidity 67    
Maximum Humidity 90    
Minimum Humidity 43    
Precipitation  
Precipitation 0.42 in 0.13 in 3.78 in (1929)
Month to date precipitation 0.90 1.37  
Year to date precipitation 17.21 21.76  
Sea Level Pressure  
Sea Level Pressure 30.02 in    
Wind  
Wind Speed 8 mph (North)    
Max Wind Speed 22 mph    
Max Gust Speed 25 mph    
Visibility 8 miles    
Events Rain , Thunderstorm    
T = Trace of Precipitation, MM = Missing Value Source: NWS Daily Summary

Daily Weather History Graph

Daily Weather History Graph

Search for Another Location

Airport or City:

Astronomy

Aug. 10, 2014 Rise Set
Actual Time 6:39 AM CDT 8:31 PM CDT
Civil Twilight 6:11 AM CDT 9:00 PM CDT
Nautical Twilight 5:35 AM CDT 9:35 PM CDT
Astronomical Twilight 4:58 AM CDT 10:12 PM CDT
Moon 8:19 PM CDT (8/10) 6:33 AM CDT (8/10)
Length of Visible Light 14h 49m
Length of Day
13h 51m
Full, 100% of the Moon is Illuminated
Aug 10
Full
Aug 10
Full
Aug 17
Last Quarter
Aug 25
New
Sep 2
First Quarter

Hourly Weather History & Observations

Time (CDT) Temp. Heat Index Dew Point Humidity Pressure Visibility Wind Dir Wind Speed Gust Speed Precip Events Conditions
12:09 AM 73.9 °F - 66.0 °F 76% 30.00 in 10.0 mi NW 19.6 mph 40.3 mph N/A Thunderstorm Thunderstorm
12:27 AM 72.0 °F - 69.1 °F 91% 30.01 in 1.8 mi West 24.2 mph 33.4 mph 0.20 in Rain , Thunderstorm Heavy Thunderstorms and Rain
12:43 AM 72.0 °F - 68.0 °F 87% 30.02 in 3.0 mi WSW 18.4 mph 24.2 mph 0.40 in Rain , Thunderstorm Heavy Thunderstorms and Rain
12:53 AM 72.0 °F - 68.0 °F 87% 29.99 in 6.0 mi WSW 13.8 mph - 0.42 in Rain , Thunderstorm Thunderstorms and Rain
1:10 AM 72.0 °F - 68.0 °F 87% 30.06 in 2.5 mi West 15.0 mph - 0.13 in Rain Heavy Rain
1:19 AM 73.0 °F - 68.0 °F 84% 30.06 in 3.0 mi WSW 8.1 mph - 0.20 in Rain Heavy Rain
1:37 AM 71.1 °F - 68.0 °F 90% 30.08 in 5.0 mi North 15.0 mph - 0.24 in Rain Rain
1:49 AM 69.8 °F - 66.2 °F 88% 30.07 in 5.0 mi North 11.5 mph - 0.28 in Rain Rain
1:53 AM 70.0 °F - 66.9 °F 90% 30.03 in 6.0 mi North 11.5 mph - 0.29 in Rain Rain
2:10 AM 70.0 °F - 68.0 °F 93% 30.06 in 6.0 mi NE 8.1 mph - 0.06 in Rain , Thunderstorm Heavy Rain
2:25 AM 70.0 °F - 66.9 °F 90% 30.04 in 5.0 mi NE 12.7 mph - 0.12 in Rain Rain
2:33 AM 69.1 °F - 66.9 °F 93% 30.04 in 7.0 mi NE 10.4 mph - 0.13 in Rain Rain
2:53 AM 68.0 °F - 64.9 °F 90% 29.96 in 10.0 mi NE 11.5 mph - 0.15 in Rain Light Rain
3:06 AM 68.0 °F - 64.9 °F 90% 29.98 in 10.0 mi ENE 12.7 mph - 0.00 in   Mostly Cloudy
3:53 AM 68.0 °F - 66.2 °F 94% 29.96 in 10.0 mi SE 10.4 mph - N/A Rain Light Rain
4:53 AM 69.1 °F - 66.0 °F 90% 29.94 in 10.0 mi SSW 5.8 mph - 0.00 in   Overcast
5:53 AM 69.1 °F - 66.0 °F 90% 29.96 in 10.0 mi WSW 6.9 mph - N/A   Overcast
6:53 AM 69.8 °F - 66.2 °F 88% 30.02 in 10.0 mi WNW 5.8 mph - N/A   Overcast
7:53 AM 70.0 °F - 66.0 °F 87% 30.01 in 10.0 mi NW 12.7 mph - N/A   Overcast
8:53 AM 71.6 °F - 66.2 °F 83% 30.05 in 10.0 mi NW 16.1 mph - N/A   Mostly Cloudy
9:53 AM 75.9 °F - 64.9 °F 69% 30.01 in 10.0 mi NW 15.0 mph - N/A   Mostly Cloudy
10:53 AM 79.0 °F - 66.0 °F 64% 30.02 in 10.0 mi North 9.2 mph - N/A   Mostly Cloudy
11:53 AM 80.1 °F 81.9 °F 64.9 °F 60% 30.03 in 10.0 mi North 13.8 mph - N/A   Mostly Cloudy
12:00 PM 82.4 °F 83.9 °F 64.4 °F 54% 30.07 in 10.0 mi North 12.7 mph - N/A   Scattered Clouds
12:53 PM 82.0 °F 83.8 °F 64.9 °F 56% 30.04 in 10.0 mi NNE 10.4 mph - N/A   Scattered Clouds
1:53 PM 84.9 °F 86.6 °F 64.9 °F 51% 30.03 in 10.0 mi Variable 4.6 mph 17.3 mph N/A   Partly Cloudy
2:53 PM 87.1 °F 88.3 °F 64.0 °F 46% 30.02 in 10.0 mi NNE 11.5 mph - N/A   Scattered Clouds
3:53 PM 84.9 °F 85.9 °F 63.0 °F 48% 30.02 in 10.0 mi Variable 5.8 mph - N/A   Scattered Clouds
4:53 PM 86.0 °F 86.8 °F 63.0 °F 46% 30.00 in 10.0 mi NNE 9.2 mph - N/A   Partly Cloudy
5:53 PM 87.1 °F 87.8 °F 63.0 °F 44% 30.00 in 10.0 mi NE 11.5 mph - N/A   Partly Cloudy
6:53 PM 84.0 °F 84.5 °F 62.1 °F 47% 30.00 in 10.0 mi NNE 10.4 mph - N/A   Mostly Cloudy
7:53 PM 82.9 °F 84.0 °F 63.0 °F 51% 30.00 in 10.0 mi ENE 5.8 mph - N/A   Clear
8:53 PM 81.0 °F 82.5 °F 64.0 °F 56% 30.01 in 10.0 mi ENE 4.6 mph - N/A   Clear
9:53 PM 80.1 °F 81.7 °F 64.0 °F 58% 30.03 in 10.0 mi ENE 3.5 mph - N/A   Clear
10:53 PM 77.0 °F - 66.0 °F 69% 30.06 in 10.0 mi Calm Calm - N/A   Clear
11:53 PM 75.9 °F - 66.9 °F 74% 30.06 in 10.0 mi Calm Calm - N/A   Clear